FW1098 Weather Reports


time (UTC)temp
F
wind
direction
speed
knots
gust
knots
rain 1hr
in
rain 24hr
in
rain mn
in
humidity
%
barometer
mb
20260901070055 72 77 0.0 0.0 0.00 0.00 0.00 93 1018.8
20260901064540 72 77 0.0 0.0 0.00 0.00 0.00 93 1018.9
20260901063045 73 77 0.0 0.0 0.00 0.00 0.00 93 1019.1
20260901061538 73 77 0.0 0.0 0.00 0.00 0.00 93 1019.1
20260901060038 73 77 0.0 0.0 0.00 0.00 0.00 92 1019.2
20260901054536 73 77 0.0 0.0 0.00 0.00 0.00 92 1019.1
20260901053100 73 77 0.0 0.0 0.00 0.00 0.00 92 1019.2
20260901051533 73 77 0.0 0.0 0.00 0.00 0.00 91 1019.4
20260901050034 73 77 0.0 0.0 0.00 0.00 0.00 91 1019.5
20260901044543 73 77 0.0 0.0 0.00 0.00 0.00 90 1019.5
20260901043037 74 77 0.0 0.0 0.00 0.00 0.00 89 1019.4
20260901041529 74 77 0.0 0.0 0.00 0.00 0.00 89 1019.3
20260901040025 74 77 0.0 0.0 0.00 0.00 0.00 89 1019.2
20260901034624 74 77 0.0 0.0 0.00 0.00 0.00 88 1019.2
20260901033032 75 77 0.0 0.0 0.00 0.00 0.00 88 1019.1
20260901031523 75 77 0.0 0.0 0.00 0.00 0.00 88 1019.0
20260901030023 75 77 0.0 0.0 0.00 0.00 0.00 87 1018.9
20260901024525 76 77 0.0 0.0 0.00 0.00 0.00 86 1018.9
20260901023022 76 77 0.0 0.0 0.00 0.00 0.00 86 1019.0
20260901021528 77 77 0.0 0.0 0.00 0.00 0.00 85 1018.9
20260901020041 77 77 0.0 0.0 0.00 0.00 0.00 85 1018.8
20260901014520 78 77 0.0 0.0 0.00 0.00 0.00 85 1018.8
20260901013020 78 77 0.0 0.0 0.00 0.00 0.00 83 1018.6
20260901011532 79 77 0.0 0.0 0.00 0.00 0.00 82 1018.3
20260901010019 79 77 0.0 0.0 0.00 0.00 0.00 81 1018.1
20260901004622 80 77 0.0 0.0 0.00 0.00 0.00 80 1017.9
20260901003018 81 77 0.0 0.0 0.00 0.00 0.00 79 1017.7
20260901001520 82 77 0.0 0.0 0.00 0.00 0.00 78 1017.7
20260901000016 82 77 0.0 0.0 0.00 0.00 0.00 78 1017.5
20260831234515 82 77 0.0 0.0 0.00 0.00 0.00 78 1017.4
20260831233031 82 77 0.0 0.9 0.00 0.00 0.00 78 1017.4
20260831231513 84 338 0.0 0.9 0.00 0.00 0.00 76 1017.5
20260831230012 86 338 0.0 2.6 0.00 0.00 0.00 71 1017.6
20260831224512 89 17 0.0 3.5 0.00 0.00 0.00 62 1017.8
20260831223011 90 11 0.9 5.2 0.00 0.00 0.00 60 1017.7
20260831221511 90 217 1.7 4.3 0.00 0.00 0.00 60 1017.7
20260831220010 91 219 0.9 4.3 0.00 0.00 0.00 60 1017.7
20260831214516 91 250 0.0 3.5 0.00 0.00 0.00 59 1017.7
20260831213009 91 282 0.9 4.3 0.00 0.00 0.00 58 1017.7
20260831211509 91 40 1.7 5.2 0.00 0.00 0.00 57 1017.8
20260831210007 91 221 1.7 4.3 0.00 0.00 0.00 59 1017.7
20260831204511 91 50 1.7 7.0 0.00 0.00 0.00 59 1017.8
20260831203003 91 239 0.9 5.2 0.00 0.00 0.00 59 1018.1
20260831201502 90 208 1.7 5.2 0.00 0.00 0.00 60 1018.4
20260831200002 90 229 1.7 7.0 0.00 0.00 0.00 61 1018.4
20260831194633 91 41 1.7 4.3 0.00 0.00 0.00 60 1018.5
20260831193057 90 202 0.9 7.8 0.00 0.00 0.00 62 1018.5
20260831191556 89 246 0.0 4.3 0.00 0.00 0.00 64 1018.8
20260831184612 89 198 2.6 7.8 0.00 0.00 0.00 64 1019.3
20260831183101 89 234 2.6 4.3 0.00 0.00 0.00 63 1019.5
20260831181550 88 56 0.0 3.5 0.00 0.00 0.00 64 1019.7
20260831180048 89 11 1.7 4.3 0.00 0.00 0.00 64 1019.8
20260831174549 88 242 0.0 3.5 0.00 0.00 0.00 64 1019.9
20260831173055 87 250 0.9 4.3 0.00 0.00 0.00 66 1020.1
20260831171540 87 59 0.9 3.5 0.00 0.00 0.00 68 1020.4
20260831170039 86 59 1.7 4.3 0.00 0.00 0.00 68 1020.5
20260831164539 86 181 0.9 7.0 0.00 0.00 0.00 69 1020.5
20260831163038 86 108 0.0 4.3 0.00 0.00 0.00 69 1020.5
20260831161533 85 82 0.9 4.3 0.00 0.00 0.00 72 1020.6
20260831160031 84 11 0.0 2.6 0.00 0.00 0.00 71 1020.6
20260831154529 84 284 1.7 4.3 0.00 0.00 0.00 73 1020.7
20260831153025 83 211 0.9 6.1 0.00 0.00 0.00 77 1020.7
20260831151523 82 61 0.9 7.8 0.00 0.00 0.00 80 1020.6
20260831150019 80 64 0.9 4.3 0.00 0.00 0.00 83 1020.6
20260831144527 81 45 0.0 7.8 0.00 0.00 0.00 85 1020.6
20260831143014 77 39 0.0 2.6 0.00 0.00 0.00 93 1020.6
20260831141511 77 39 0.0 2.6 0.00 0.00 0.00 95 1020.6
20260831140009 76 39 0.0 2.6 0.00 0.00 0.00 96 1020.6
20260831134509 76 19 0.9 3.5 0.00 0.00 0.00 97 1020.6
20260831133007 76 19 0.0 2.6 0.00 0.00 0.00 98 1020.5
20260831131504 75 22 0.9 3.5 0.00 0.00 0.00 98 1020.5
20260831130112 74 24 0.0 2.6 0.00 0.00 0.00 98 1020.5
20260831124559 73 24 0.0 2.6 0.00 0.00 0.00 98 1020.5
20260831123055 71 24 0.0 0.9 0.00 0.00 0.00 97 1020.3
20260831121554 70 24 0.0 0.0 0.00 0.00 0.00 96 1020.3
20260831120053 69 24 0.0 0.0 0.00 0.00 0.00 96 1020.3
20260831114551 69 24 0.0 0.0 0.00 0.00 0.00 96 1020.1
20260831113052 69 24 0.0 0.0 0.00 0.00 0.00 96 1020.2
20260831111608 69 24 0.0 0.0 0.00 0.00 0.00 96 1020.1
20260831110124 69 24 0.0 0.0 0.00 0.00 0.00 95 1020.0
20260831104549 69 24 0.0 0.0 0.00 0.00 0.00 95 1019.8
20260831103054 69 24 0.0 0.0 0.00 0.00 0.00 95 1019.9
20260831101547 69 24 0.0 0.0 0.00 0.00 0.00 95 1020.0
20260831100054 69 24 0.0 0.0 0.00 0.00 0.00 94 1019.8
20260831094545 70 24 0.0 0.0 0.00 0.00 0.00 94 1019.9
20260831093044 70 24 0.0 0.0 0.00 0.00 0.00 95 1019.9
20260831091550 70 24 0.0 0.0 0.00 0.00 0.00 94 1019.7
20260831090043 70 24 0.0 0.0 0.00 0.00 0.00 94 1019.7
20260831084551 70 24 0.0 0.0 0.00 0.00 0.00 94 1019.6
20260831083047 70 24 0.0 0.0 0.00 0.00 0.00 94 1019.5
20260831081555 70 24 0.0 0.0 0.00 0.00 0.00 94 1019.4
20260831080041 70 24 0.0 0.0 0.00 0.00 0.00 93 1019.2
20260831074544 70 24 0.0 0.0 0.00 0.00 0.00 93 1019.1
20260831073102 70 24 0.0 0.0 0.00 0.00 0.00 94 1019.2
20260831071535 71 24 0.0 0.0 0.00 0.00 0.00 93 1019.4